When you browse on this site, cookies collect data to enhance your experience and personalize the content and advertising you see.
Visit our Privacy Policy to learn more. By continuing to use the site, you agree to this use of cookies and data.
  • în România
  • Lista ţărilor
  • Pe 7 zile
  • Temperatura apei
  • Hartă satelitară
  • Meteo pe hartă
  • Widget-uri
  • user-avatar
    Intrare

    Meteo pe oră la Shetnevo

    Astăzi, 24 Martie, Duminică

    Timp Temperatura Precipitaţii Vânt Presiune Umiditate
    00:00 0°C° 1 mm 4 m/s 745 mmHg 75%
    01:00 +1°C° 1 mm 3 m/s 744 mmHg 77%
    02:00 +1°C° 0 mm 3 m/s 743 mmHg 80%
    03:00 +1°C° 0.1 mm 3 m/s 742 mmHg 81%
    04:00 +1°C° 0.1 mm 3 m/s 742 mmHg 83%
    05:00 +1°C° 0.1 mm 3 m/s 741 mmHg 85%
    06:00 +2°C° 0 mm 3 m/s 741 mmHg 85%
    07:00 +1°C° 0 mm 4 m/s 741 mmHg 86%
    08:00 +1°C° 0 mm 4 m/s 741 mmHg 86%
    09:00 +2°C° 0 mm 5 m/s 741 mmHg 79%
    10:00 +3°C° 0 mm 5 m/s 741 mmHg 72%
    11:00 +4°C° 0 mm 6 m/s 741 mmHg 66%
    12:00 +4°C° 0.1 mm 6 m/s 741 mmHg 61%
    13:00 +4°C° 0.1 mm 6 m/s 741 mmHg 57%
    14:00 +5°C° 0.1 mm 6 m/s 741 mmHg 53%
    15:00 +5°C° 0.1 mm 5 m/s 741 mmHg 55%
    16:00 +4°C° 0.1 mm 4 m/s 741 mmHg 57%
    17:00 +4°C° 0.1 mm 3 m/s 741 mmHg 59%
    18:00 +3°C° 0 mm 3 m/s 741 mmHg 62%
    19:00 +2°C° 0 mm 3 m/s 741 mmHg 66%
    20:00 0°C° 0 mm 3 m/s 741 mmHg 69%
    21:00 +1°C° 0 mm 2 m/s 741 mmHg 72%
    22:00 -1°C° 0 mm 2 m/s 741 mmHg 74%
    23:00 -1°C° 0 mm 2 m/s 741 mmHg 76%

    Mâine, 25 Martie, Luni

    Timp Temperatura Precipitaţii Vânt Presiune Umiditate
    00:00 -2°C° 0 mm 2 m/s 741 mmHg 77%
    01:00 -2°C° 0 mm 2 m/s 741 mmHg 78%
    02:00 -2°C° 0 mm 2 m/s 741 mmHg 80%
    03:00 -3°C° 0 mm 2 m/s 741 mmHg 80%
    04:00 -3°C° 0 mm 2 m/s 740 mmHg 80%
    05:00 -3°C° 0 mm 2 m/s 740 mmHg 80%
    06:00 -2°C° 0 mm 2 m/s 740 mmHg 76%
    07:00 -1°C° 0 mm 2 m/s 740 mmHg 71%
    08:00 0°C° 0 mm 3 m/s 740 mmHg 67%
    09:00 +2°C° 0 mm 3 m/s 740 mmHg 61%
    10:00 +3°C° 0 mm 3 m/s 739 mmHg 54%
    11:00 +5°C° 0 mm 4 m/s 739 mmHg 48%
    12:00 +5°C° 0 mm 4 m/s 739 mmHg 47%
    13:00 +6°C° 0 mm 4 m/s 738 mmHg 46%
    14:00 +7°C° 0 mm 3 m/s 738 mmHg 45%
    15:00 +5°C° 0 mm 3 m/s 738 mmHg 50%
    16:00 +6°C° 0 mm 2 m/s 738 mmHg 55%
    17:00 +5°C° 0 mm 2 m/s 737 mmHg 61%
    18:00 +4°C° 0 mm 2 m/s 737 mmHg 65%
    19:00 +2°C° 0 mm 2 m/s 737 mmHg 69%
    20:00 +1°C° 0 mm 2 m/s 737 mmHg 74%
    21:00 +1°C° 0 mm 2 m/s 737 mmHg 76%
    22:00 +1°C° 0 mm 2 m/s 737 mmHg 77%
    23:00 +1°C° 0 mm 2 m/s 737 mmHg 79%

    Poimâine, 26 Martie, Marţi

    Timp Temperatura Precipitaţii Vânt Presiune Umiditate
    00:00 -1°C° 0 mm 2 m/s 736 mmHg 82%
    01:00 -1°C° 0 mm 2 m/s 736 mmHg 85%
    02:00 -1°C° 0 mm 2 m/s 736 mmHg 89%
    03:00 -1°C° 0.3 mm 2 m/s 736 mmHg 89%
    04:00 -1°C° 0.3 mm 2 m/s 736 mmHg 90%
    05:00 -1°C° 0.3 mm 3 m/s 735 mmHg 90%
    06:00 -1°C° 0.4 mm 3 m/s 735 mmHg 88%
    07:00 -2°C° 0.4 mm 4 m/s 736 mmHg 86%
    08:00 -2°C° 0.4 mm 4 m/s 736 mmHg 83%
    09:00 -2°C° 0.1 mm 4 m/s 736 mmHg 78%
    10:00 -1°C° 0.1 mm 4 m/s 736 mmHg 73%
    11:00 -1°C° 0.1 mm 4 m/s 736 mmHg 68%
    12:00 -1°C° 0.1 mm 4 m/s 736 mmHg 64%
    13:00 0°C° 0.1 mm 4 m/s 736 mmHg 60%
    14:00 +1°C° 0.1 mm 3 m/s 736 mmHg 56%
    15:00 +1°C° 0.1 mm 3 m/s 736 mmHg 58%
    16:00 +1°C° 0.1 mm 2 m/s 736 mmHg 61%
    17:00 +2°C° 0.1 mm 1 m/s 736 mmHg 64%
    18:00 +1°C° 0 mm 1 m/s 737 mmHg 68%
    19:00 0°C° 0 mm 1 m/s 737 mmHg 73%
    20:00 -2°C° 0 mm 1 m/s 737 mmHg 78%
    21:00 -2°C° 0 mm 1 m/s 738 mmHg 79%
    22:00 -2°C° 0 mm 1 m/s 738 mmHg 80%
    23:00 -3°C° 0 mm 1 m/s 739 mmHg 81%

    27 Martie, Miercuri

    Timp Temperatura Precipitaţii Vânt Presiune Umiditate
    00:00 -5°C° 0 mm 2 m/s 739 mmHg 81%
    01:00 -5°C° 0 mm 2 m/s 740 mmHg 81%
    02:00 -6°C° 0 mm 3 m/s 740 mmHg 81%
    03:00 -6°C° 0 mm 3 m/s 740 mmHg 82%
    04:00 -6°C° 0 mm 3 m/s 741 mmHg 83%
    05:00 -7°C° 0 mm 4 m/s 741 mmHg 85%
    06:00 -5°C° 0.1 mm 4 m/s 742 mmHg 80%
    07:00 -5°C° 0.1 mm 5 m/s 742 mmHg 76%
    08:00 -4°C° 0.1 mm 5 m/s 743 mmHg 72%
    09:00 -2°C° 0.1 mm 5 m/s 743 mmHg 68%
    10:00 -2°C° 0.1 mm 5 m/s 744 mmHg 65%
    11:00 -2°C° 0.1 mm 5 m/s 744 mmHg 62%
    12:00 -1°C° 0 mm 5 m/s 745 mmHg 61%
    13:00 -1°C° 0 mm 5 m/s 745 mmHg 60%
    14:00 -1°C° 0 mm 5 m/s 746 mmHg 60%
    15:00 -1°C° 0 mm 5 m/s 746 mmHg 61%
    16:00 -2°C° 0 mm 5 m/s 747 mmHg 63%
    17:00 -2°C° 0 mm 5 m/s 748 mmHg 64%
    18:00 -2°C° 0 mm 4 m/s 748 mmHg 65%
    19:00 -1°C° 0 mm 3 m/s 749 mmHg 67%
    20:00 -1°C° 0 mm 3 m/s 750 mmHg 68%
    21:00 -2°C° 0 mm 3 m/s 750 mmHg 71%
    22:00 -4°C° 0 mm 3 m/s 750 mmHg 74%
    23:00 -4°C° 0 mm 2 m/s 751 mmHg 78%

    28 Martie, Joi

    Timp Temperatura Precipitaţii Vânt Presiune Umiditate
    00:00 -5°C° 0 mm 2 m/s 751 mmHg 78%
    01:00 -5°C° 0 mm 2 m/s 752 mmHg 79%
    02:00 -5°C° 0 mm 2 m/s 752 mmHg 80%
    03:00 -5°C° 0 mm 2 m/s 753 mmHg 81%
    04:00 -6°C° 0 mm 2 m/s 753 mmHg 81%
    05:00 -6°C° 0 mm 2 m/s 753 mmHg 82%
    06:00 -5°C° 0 mm 2 m/s 754 mmHg 76%
    07:00 -4°C° 0 mm 2 m/s 754 mmHg 70%
    08:00 -1°C° 0 mm 1 m/s 754 mmHg 64%
    09:00 -2°C° 0 mm 2 m/s 754 mmHg 56%
    10:00 +1°C° 0 mm 2 m/s 755 mmHg 48%
    11:00 +2°C° 0 mm 2 m/s 755 mmHg 40%
    12:00 +3°C° 0 mm 2 m/s 754 mmHg 40%
    13:00 +3°C° 0 mm 3 m/s 754 mmHg 41%
    14:00 +3°C° 0 mm 3 m/s 754 mmHg 41%
    15:00 +3°C° 0 mm 3 m/s 753 mmHg 47%
    16:00 +4°C° 0 mm 2 m/s 753 mmHg 52%
    17:00 +3°C° 0 mm 2 m/s 753 mmHg 58%
    18:00 +2°C° 0 mm 2 m/s 753 mmHg 62%
    19:00 +1°C° 0 mm 3 m/s 752 mmHg 66%
    20:00 0°C° 0 mm 3 m/s 752 mmHg 70%
    21:00 0°C° 0 mm 3 m/s 752 mmHg 72%
    22:00 -1°C° 0 mm 3 m/s 751 mmHg 74%
    23:00 -1°C° 0 mm 3 m/s 751 mmHg 76%

    29 Martie, Vineri

    Timp Temperatura Precipitaţii Vânt Presiune Umiditate
    00:00 -2°C° 0 mm 4 m/s 751 mmHg 80%
    01:00 -1°C° 0 mm 4 m/s 750 mmHg 84%
    02:00 -1°C° 0 mm 4 m/s 750 mmHg 88%
    03:00 -1°C° 0 mm 4 m/s 749 mmHg 88%
    04:00 0°C° 0 mm 5 m/s 749 mmHg 89%
    05:00 0°C° 0 mm 5 m/s 749 mmHg 90%
    06:00 0°C° 0 mm 5 m/s 749 mmHg 88%
    07:00 0°C° 0 mm 5 m/s 749 mmHg 87%
    08:00 0°C° 0 mm 5 m/s 749 mmHg 85%
    09:00 +1°C° 0 mm 4 m/s 750 mmHg 79%
    10:00 +3°C° 0 mm 4 m/s 750 mmHg 73%
    11:00 +4°C° 0 mm 4 m/s 750 mmHg 66%
    12:00 +5°C° 0 mm 4 m/s 750 mmHg 63%
    13:00 +7°C° 0 mm 3 m/s 749 mmHg 60%
    14:00 +7°C° 0 mm 3 m/s 749 mmHg 57%
    15:00 +7°C° 0 mm 3 m/s 749 mmHg 61%
    16:00 +6°C° 0 mm 2 m/s 748 mmHg 65%
    17:00 +7°C° 0 mm 1 m/s 748 mmHg 70%
    18:00 +5°C° 0 mm 2 m/s 748 mmHg 76%
    19:00 +4°C° 0 mm 2 m/s 748 mmHg 82%
    20:00 +2°C° 0 mm 2 m/s 747 mmHg 88%
    21:00 +3°C° 0 mm 2 m/s 747 mmHg 90%
    22:00 +3°C° 0 mm 2 m/s 747 mmHg 92%
    23:00 +2°C° 0 mm 3 m/s 746 mmHg 94%
    Arată mai mult